DW5082 Weather Reports


Display with metric or nautical units.
time (UTC)temp
F
wind
direction
speed
MPH
gust
MPH
rain 1hr
in
rain 24hr
in
rain mn
in
humidity
%
barometer
mb
20260504150705 63 210 2.0 12.0 0.00 0.00 0.00 43 1013.2
20260504150205 63 203 2.0 10.0 0.00 0.00 0.00 42 1013.3
20260504141205 60 211 2.0 6.0 0.00 0.00 0.00 46 1013.7
20260504140206 59 232 4.0 12.0 0.00 0.00 0.00 47 1013.7
20260504130705 54 191 3.0 5.0 0.00 0.00 0.00 54 1014.2
20260504130205 54 201 2.0 7.0 0.00 0.00 0.00 56 1014.3
20260504120204 51 188 2.0 7.0 0.00 0.00 0.00 57 1014.6
20260504110705 49 210 1.0 3.0 0.00 0.00 0.00 60 1014.4
20260504110205 49 201 2.0 5.0 0.00 0.00 0.00 60 1014.4
20260504100206 48 236 0.0 3.0 0.00 0.00 0.00 100 1014.0
20260504081704 48 193 1.0 7.0 0.00 0.00 0.00 100 1013.8
20260504081205 47 163 1.0 3.0 0.00 0.00 0.00 100 1013.8
20260504080704 47 220 1.0 6.0 0.00 0.00 0.00 100 1013.7
20260504070205 48 227 1.0 3.0 0.00 0.00 0.00 100 1013.4
20260504060205 48 185 1.0 3.0 0.00 0.00 0.00 100 1013.3
20260504044705 50 212 2.0 5.0 0.00 0.00 0.00 100 1013.1
20260504044204 50 207 0.0 3.0 0.00 0.00 0.00 100 1013.1
20260504043705 50 199 1.0 2.0 0.00 0.00 0.00 100 1013.0
20260504043204 50 207 0.0 3.0 0.00 0.00 0.00 100 1012.9
20260504041705 49 202 0.0 2.0 0.00 0.00 0.00 100 1012.8
20260504041205 49 206 0.0 1.0 0.00 0.00 0.00 100 1012.8
20260504040705 49 227 1.0 3.0 0.00 0.00 0.00 100 1012.7
20260504040205 49 218 1.0 2.0 0.00 0.00 0.00 100 1012.7
20260504034705 49 224 0.0 1.0 0.00 0.00 0.00 100 1012.7
20260504034205 48 219 1.0 2.0 0.00 0.00 0.00 100 1012.7
20260504033704 48 217 0.0 2.0 0.00 0.00 0.00 100 1012.8
20260504031705 46 143 0.0 0.0 0.00 0.00 0.00 100 1012.8
20260504031205 46 143 0.0 0.0 0.00 0.00 0.00 100 1012.8
20260504030704 47 143 0.0 0.0 0.00 0.00 0.00 100 1012.8
20260504030204 47 143 0.0 0.0 0.00 0.00 0.00 100 1012.8
20260504024704 47 143 0.0 0.0 0.00 0.00 0.00 100 1012.8
20260504024205 48 143 0.0 0.0 0.00 0.00 0.00 100 1012.8
20260504023205 48 143 0.0 0.0 0.00 0.00 0.00 100 1012.9
20260504021705 50 143 0.0 0.0 0.00 0.00 0.00 100 1012.9
20260504021204 50 143 0.0 0.0 0.00 0.00 0.00 100 1012.9
20260504020205 52 143 0.0 0.0 0.00 0.00 0.00 100 1012.7
20260504014704 53 143 0.0 0.0 0.00 0.00 0.00 100 1012.6
20260504014205 53 156 0.0 0.0 0.00 0.00 0.00 100 1012.6
20260504013704 53 156 0.0 0.0 0.00 0.00 0.00 100 1012.6
20260504013204 53 156 0.0 0.0 0.00 0.00 0.00 100 1012.5
20260504011705 54 155 0.0 0.0 0.00 0.00 0.00 100 1012.5
20260504010705 55 162 1.0 3.0 0.00 0.00 0.00 100 1012.4
20260504010205 55 224 1.0 3.0 0.00 0.00 0.00 100 1012.3
20260504004704 55 204 0.0 2.0 0.00 0.00 0.00 100 1012.2
20260504004205 55 127 2.0 6.0 0.00 0.00 0.00 100 1012.1
20260504003205 55 216 0.0 3.0 0.00 0.00 0.00 100 1012.0
20260504001705 56 25 1.0 3.0 0.00 0.00 0.00 100 1011.7
20260504000705 56 146 2.0 3.0 0.00 0.00 0.00 100 1011.5
20260504000205 56 158 1.0 5.0 0.00 0.00 0.00 100 1011.5
20260503234704 57 158 1.0 3.0 0.00 0.00 0.00 100 1011.3
20260503234205 57 181 1.0 3.0 0.00 0.00 0.00 100 1011.3
20260503233704 57 199 2.0 5.0 0.00 0.00 0.00 100 1011.2
20260503233205 57 21 1.0 7.0 0.00 0.00 0.00 100 1011.1
20260503231705 58 158 0.0 2.0 0.00 0.00 0.00 100 1011.0
20260503231205 59 190 1.0 6.0 0.00 0.00 0.00 100 1010.9
20260503230704 59 185 1.0 3.0 0.00 0.00 0.00 100 1010.8
20260503230205 60 165 1.0 9.0 0.00 0.00 0.00 100 1010.8
20260503224704 60 109 2.0 7.0 0.00 0.00 0.00 97 1010.6
20260503224205 60 123 1.0 9.0 0.00 0.00 0.00 97 1010.6
20260503223205 60 94 2.0 7.0 0.00 0.00 0.00 99 1010.6
20260503221704 59 199 2.0 8.0 0.00 0.00 0.00 97 1010.7
20260503221204 59 144 2.0 6.0 0.00 0.00 0.00 98 1010.7
20260503220704 60 198 2.0 12.0 0.00 0.00 0.00 97 1010.7
20260503220204 60 165 2.0 8.0 0.00 0.00 0.00 97 1010.7
20260503214704 60 23 3.0 8.0 0.00 0.00 0.00 96 1010.7
20260503214204 59 194 3.0 7.0 0.00 0.00 0.00 97 1010.7
20260503213705 59 129 2.0 6.0 0.00 0.00 0.00 97 1010.7
20260503213204 59 229 4.0 13.0 0.00 0.00 0.00 97 1010.7
20260503210704 59 92 3.0 12.0 0.00 0.00 0.00 96 1010.6
20260503210205 60 99 3.0 8.0 0.00 0.00 0.00 96 1010.5
20260503204704 60 206 2.0 9.0 0.00 0.00 0.00 98 1010.4
20260503204204 60 118 2.0 9.0 0.00 0.00 0.00 97 1010.6
20260503203704 59 194 2.0 14.0 0.00 0.00 0.00 99 1010.6
20260503203204 59 110 2.0 10.0 0.00 0.00 0.00 99 1010.5
20260503201705 57 143 2.0 9.0 0.00 0.00 0.00 100 1010.6
20260503201205 57 227 2.0 7.0 0.00 0.00 0.00 100 1010.6
20260503200704 57 47 2.0 12.0 0.00 0.00 0.00 100 1010.7
20260503200204 57 277 3.0 12.0 0.00 0.00 0.00 100 1010.7
20260503194205 57 195 4.0 8.0 0.00 0.00 0.00 100 1010.8
20260503193705 57 56 3.0 8.0 0.00 0.00 0.00 100 1010.9
20260503191204 57 112 2.0 14.0 0.00 0.00 0.00 100 1011.2
20260503190704 56 141 2.0 12.0 0.00 0.00 0.00 100 1011.0
20260503190205 56 204 1.0 13.0 0.00 0.00 0.00 100 1011.2
20260503184204 55 28 1.0 7.0 0.00 0.00 0.00 100 1011.4
20260503183704 55 214 1.0 6.0 0.00 0.00 0.00 100 1011.4
20260503183204 55 199 2.0 10.0 0.00 0.00 0.00 100 1011.5
20260503181704 55 89 2.0 8.0 0.00 0.00 0.00 100 1011.6
20260503181204 55 170 5.0 10.0 0.00 0.00 0.00 100 1011.5
20260503180205 54 154 2.0 13.0 0.00 0.00 0.00 100 1011.6
20260503174704 54 186 3.0 10.0 0.00 0.00 0.00 100 1011.6
20260503174205 54 186 4.0 13.0 0.00 0.00 0.00 100 1011.7
20260503173705 53 92 2.0 12.0 0.00 0.00 0.00 100 1011.6
20260503173205 52 272 3.0 12.0 0.00 0.00 0.00 100 1011.7
20260503171705 52 43 2.0 9.0 0.00 0.00 0.00 100 1011.9
20260503171204 52 224 2.0 12.0 0.00 0.00 0.00 100 1011.9
20260503170704 53 173 5.0 9.0 0.00 0.00 0.00 100 1011.9
20260503170204 53 156 2.0 10.0 0.00 0.00 0.00 100 1011.8